Regional Weather Roundup
Issued by NWS

Home | Current Version | Previous Version | Text Only | Print | Product List | Glossary Off
Versions: 1 2 3 4 5 6 7 8 9 10 11 12 13 14 15 16 17 18 19 20 21 22 23 24 25 26 27 28 29 30 31 32 33 34 35 36 37 38 39 40 41 42 43 44 45 46 47 48 49 50

000
ASUS45 KCYS 011810
RWRWY

WYOMING REGIONAL WEATHER ROUNDUP
NATIONAL WEATHER SERVICE CHEYENNE WY
1200 PM MDT MON JUN 01 2015

NOTE:  "FAIR" INDICATES FEW OR NO CLOUDS BELOW 12,000 FEET
WITH NO SIGNIFICANT WEATHER AND/OR OBSTRUCTIONS TO VISIBILITY.

WYZ001-011900-
YELLOWSTONE NATIONAL PARK

CITY           SKY/WX    TMP DP  RH WIND       PRES   REMARKS
LK YELLOWSTONE   N/A     61  40  45 VRB5      30.13F
6HR MIN TEMP:  43; 6HR MAX TEMP:  61;

W YELLOWSTONE  NOT AVBL

$$
WYZ002>013-054>058-071-098>099-011900-
NORTHERN WYOMING

CITY           SKY/WX    TMP DP  RH WIND       PRES   REMARKS
JACKSON        SUNNY     70  46  43 SE5       30.04F
CODY           FAIR      73  52  46 E6        29.94F
GREYBULL       FAIR      78  49  35 SE6       29.89F
6HR MIN TEMP:  57; 6HR MAX TEMP:  79;

WORLAND        FAIR      77  51  40 S5        29.90F
6HR MIN TEMP:  54; 6HR MAX TEMP:  78;

SHERIDAN       FAIR      77  56  48 CALM      29.89S
6HR MIN TEMP:  53; 6HR MAX TEMP:  78;

BUFFALO        FAIR      74  55  51 SE9       29.95F
6HR MIN TEMP:  56; 6HR MAX TEMP:  75;

GILLETTE       FAIR      78  59  51 S12       29.93F
6HR MIN TEMP:  56; 6HR MAX TEMP:  78;

HULETT         FAIR      81  55  41 W8        29.95F
NEWCASTLE      FAIR      73  52  46 SE6       29.99S

$$
WYZ014>020-022>026-101>103-011900-
CENTRAL WYOMING

CITY           SKY/WX    TMP DP  RH WIND       PRES   REMARKS
BIG PINEY      FAIR      73  41  31 S18G24    30.10F
6HR MIN TEMP:  46; 6HR MAX TEMP:  73;

PINEDALE       FAIR      72  36  26 S14G20    30.11F
DUBOIS         FAIR      66  37  34 SE7       30.09F
LANDER         FAIR      71  53  52 N6        29.99F
6HR MIN TEMP:  55; 6HR MAX TEMP:  72;

RIVERTON       FAIR      74  52  46 SW6       30.01S
6HR MIN TEMP:  57; 6HR MAX TEMP:  75; 6HR PCP: TRACE;

CASPER         FAIR      78  46  32 SW21G26   30.02F
6HR MIN TEMP:  50; 6HR MAX TEMP:  78;

DOUGLAS        FAIR      81  49  32 CALM      30.01S
6HR MIN TEMP:  51; 6HR MAX TEMP:  81;


$$
WYZ021-027>030-104>119-011900-
SOUTHERN WYOMING

CITY           SKY/WX    TMP DP  RH WIND       PRES   REMARKS
EVANSTON       PTSUNNY   74  36  25 SW17G24   30.10F
6HR MIN TEMP:  54; 6HR MAX TEMP:  74;

KEMMERER       FAIR      73  37  27 SE9       30.12F
FORT BRIDGER   FAIR      77  33  20 SW9       30.12F
ROCK SPRINGS   FAIR      76  35  22 SW9       30.10F
6HR MIN TEMP:  53; 6HR MAX TEMP:  78; 6HR PCP: TRACE;

DIXON          FAIR      78  40  25 SW13G22   30.16S
RAWLINS        FAIR      75  38  26 SW9       30.15F
6HR MIN TEMP:  48; 6HR MAX TEMP:  75; 6HR PCP: TRACE;

SARATOGA       FAIR      75  34  22 W12       30.17F
LARAMIE        FAIR      75  41  29 SW12G17   30.16F
6HR MIN TEMP:  45; 6HR MAX TEMP:  76;

CHEYENNE       FAIR      74  43  32 SW14      30.12S
6HR MIN TEMP:  49; 6HR MAX TEMP:  79;

TORRINGTON     FAIR      78  54  43 S8        29.98F
6HR MIN TEMP:  52; 6HR MAX TEMP:  78;

PINE BLUFFS    FAIR      77  52  41 S12       30.07F

$$


USA.gov is the U.S. government's official web portal to all federal, state and local government web resources and services.